Regional Weather Roundup
Issued by NWS Austin/San Antonio, TX

Current Version | Previous Version | Text Only | Print | Product List | Glossary On
Versions: 1 2 3 4 5 6 7 8 9 10 11 12 13 14 15 16 17 18 19 20 21 22 23 24 25 26 27 28 29 30 31 32 33 34 35 36 37 38 39 40 41 42 43 44 45 46 47 48 49 50
000
ASUS44 KEWX 231011
RWREWX
SOUTH TEXAS REGIONAL WEATHER ROUNDUP
NATIONAL WEATHER SERVICE AUSTIN/SAN ANTONIO TX
500 AM CDT FRI OCT 23 2020

NOTE: "FAIR" INDICATED FEW OR NO CLOUDS BELOW 12,000 FEET WITH NO
SIGNIFICANT WEATHER AND/OR OBSTRUCTIONS TO VISIBILITY.

* - THESE STATIONS ARE NOT NWS OR FAA STATIONS...AND ARE NOT SUBJECT
    TO NWS AND FAA QUALITY CONTROL.

TXZ171-172-183>190-231100-
TEXAS HILL COUNTRY AND EDWARDS PLATEAU

CITY           SKY/WX    TMP DP  RH WIND       PRES   REMARKS
JUNCTION       CLOUDY    73  68  84 S5        29.92F
*LLANO         CLOUDY    75  66  73 S7        29.90F
BURNET         CLOUDY    73  67  81 S7        29.94F
*HORSESHOE BAY CLOUDY    73  68  83 SE3       29.92F
*LAGO VISTA    CLOUDY    72  69  92 S5        29.93F
*KERRVILLE     CLOUDY    72  67  85 S8        29.94F
*FREDERICKSBRG CLOUDY    72  65  79 S7        29.94F
*ROCKSPRINGS   CLOUDY    68  66  94 S13G22    29.99F
*BOERNE        CLOUDY    72  70  94 S8        29.94F
*CASTROVILLE   CLOUDY    77  70  79 SE5       29.93S
HONDO          CLOUDY    75  68  78 S10       29.91F
*UVALDE        CLOUDY    74  71  92 SE7       29.93F
DEL RIO        CLOUDY    76  70  82 E10G21    29.87F
*LAUGHLIN AFB  CLOUDY    74  69  85 E12       29.89S
*SPOFFORD      CLOUDY   N/A N/A N/A SE10      29.84S
*EAGLE PASS    NOT AVBL
CARRIZO SPRGS  MOCLDY    72  72 100 SE5       29.88S
*FAITH RANCH   CLEAR     73  72  94 SE7       29.90S
$$

TXZ173-191>194-202-209-217>225-228-231100-
CENTRAL AND SOUTH CENTRAL TEXAS

CITY           SKY/WX    TMP DP  RH WIND       PRES   REMARKS
GEORGETOWN     CLOUDY    74  70  87 SE7       29.93F
*TAYLOR        CLOUDY    74  71  89 SE6       29.92S
AUSTIN/BERGSTM CLOUDY    75  72  90 S5        29.91F
AUSTIN/MABRY   CLOUDY    75  70  84 VRB3      29.92F
*PFLUGERVILLE  CLOUDY    73  72  94 CALM      29.92F FOG
SAN MARCOS     CLOUDY    75  73  93 S7        29.92F
NEW BRAUNFELS  CLOUDY    77  71  82 S6        29.90F
*RANDOLPH AFB  CLOUDY    75  72  88 S6        29.91S
*SEGUIN        CLOUDY    74  71  93 S3        29.95F
SAN ANTONIO    CLOUDY    75  71  87 SE8       29.92F
STINSON FIELD  CLOUDY    73  72  96 SE5       29.89F
*KELLY FIELD   CLOUDY    75  71  88 SE7       29.89F
*PLEASANTON    CLOUDY    76  73  89 SE5       29.91S
*KENEDY        CLOUDY    75  73  93 SE6       29.91S
*LA GRANGE     CLOUDY    76  76 100 S3        29.89F
*GIDDINGS      CLOUDY    75  73  93 CALM      29.92F
*GONZALES      CLOUDY    76  75  98 SE3       29.90S
$$

TXZ163>164-176>182-195>201-210>213-226-227-235-231100-
SOUTHEAST TEXAS

CITY           SKY/WX    TMP DP  RH WIND       PRES   REMARKS
COLLEGE STN    CLOUDY    74  72  93 SE5       29.92F
*BRYAN         CLOUDY    73  73 100 SE3       29.94S
*CALDWELL      CLOUDY    73 N/A N/A SE7       29.92F
*CROCKETT      NOT AVBL
*BRENHAM       CLOUDY    74  73  99 SE3       29.92F FOG
HUNTSVILLE     CLOUDY    77  71  82 CALM      29.93F
CONROE         CLOUDY    76  73  91 E3        29.93F
HOUSTON BUSH   MOCLDY    73  72  96 CALM      29.91F
HOUSTON HOBBY  PTCLDY    76  73  91 E3        29.90F
*HOUSTON SW AP FOG       71  71 100 CALM      29.92S VSB 1/2
PEARLAND       MOCLDY    75  71  87 NE3       29.92F
HOUSTON HOOKS  FOG       70  68  93 CALM      29.92S VSB 1/4
ELLINGTON FLD  MOCLDY    75  73  94 E5        29.90F
SUGAR LAND     CLOUDY    75  74  96 E3        29.91S
*HOUSTON EXEC  MOCLDY    73  73 100 SE3       29.93S FOG
*CLEVELAND MUN CLOUDY    74  74  98 CALM      29.93F FOG
*WHARTON       CLOUDY    71  70  96 CALM      29.91F
*COLUMBUS      NOT AVBL
*EAGLE LAKE    CLOUDY    71  70  97 NE3       29.91F FOG
$$

TXZ214>216-236>238-231100-
THE UPPER TEXAS COAST

CITY           SKY/WX    TMP DP  RH WIND       PRES   REMARKS
*ORANGE        PTCLDY    75  73  92 E3        29.95R FOG
PORT ARTHUR    MOCLDY    76  75  97 NE3       29.92S
GALVESTON      MOCLDY    79  74  84 SE5       29.91F
ANGLETON       FOG       70  69  97 CALM      29.90F VSB 1/4
*BAY CITY      FOG       72  71  99 CALM      29.90S VSB 1
PALACIOS       CLEAR     72  72 100 CALM      29.89F FOG
$$

TXZ229>234-239>247-231100-
TEXAS COASTAL BEND AND RIO GRANDE PLAINS

CITY           SKY/WX    TMP DP  RH WIND       PRES   REMARKS
VICTORIA       FOG       71  70  96 NE5       29.90S VSB 1/4
*BEEVILLE      NOT AVBL
ROCKPORT       PTCLDY    76  75  97 S3        29.88F
*PORT ARANSAS  MOCLDY    79  75  89 SE6       29.89F
*PORT LAVACA   FOG       75  71  89 CALM      29.89S VSB 1/4
*INGLESIDE     PTCLDY   N/A N/A N/A S3        29.87S
CORPUS CHRISTI PTCLDY    73  73 100 E3        29.87F
CORPUS NAS     MOCLDY    78  76  93 SE6       29.87F
*ROBSTOWN      PTCLDY    73  73  98 E3        29.88F FOG
ALICE          FOG       74  74 100 NE3       29.87F VSB 1/4
KINGSVILLE NAS FOG       72  71  97 CALM      29.88S VSB 1/4
COTULLA        CLOUDY    76  72  87 SE8       29.88F
LAREDO         CLOUDY    77  72  84 SE13      29.87S
$$

TXZ248>255-231100-
DEEP SOUTH TEXAS

CITY           SKY/WX    TMP DP  RH WIND       PRES   REMARKS
BROWNSVILLE    CLEAR     74  72  93 CALM      29.86F
PORT ISABEL    CLEAR     76  74  93 CALM      29.86S
HARLINGEN      FOG       71  71 100 SE3       29.86S VSB 1/2
*HEBBRONVILLE  CLOUDY    74  72  92 S8        29.89F
MCALLEN        PTCLDY    78  72  81 SE6       29.86F
*WESLACO       CLOUDY    74  72  93 CALM      29.86S
FALFURRIAS     CLOUDY    69  69 100 CALM      29.87F VSB 1/2
EDINBURG       PTCLDY    64  62  96 E3        29.87S FOG
*ZAPATA        CLOUDY    79  75  89 SE6       29.88
$$

TXZ213>215-236>238-242>244-246-247-251-254-255-231100-
CMAN STATIONS

STATION/POSITION TIME  TEMP    WIND        PRES    WAVE
                       AIR SEA DIR/SP/G            HT/PER
                 (UTC) (F)     (DEG/KT/KT) (MB)    (FT/S)
SEA RIM ST PARK  1000   77     120/  5/  6 1013.2
NORTH JETTY/GLS  0924   83 78  140/  5/  7 1011.7
EAGLE POINT      0924   78 80  110/  6/  7 1012.3
MORGANS POINT    0924   78 80  110/  6/  8 1012.8
PORT O`CONNOR    0930   78 83  140/  8/  9 1011.5
PORT ARANSAS     0900   79 80  130/  8/  9 1011.8
MALAQUITE BEACH  0924   79     120/  9/ 10   N/A
BAFFIN BAY       0924   79 83  100/  6/  8 1011.0
PORT ISABEL      0924   80 83  150/  6/  8 1012.9
$$



USA.gov is the U.S. government's official web portal to all federal, state and local government web resources and services.